{"data":{"norad_id":62565,"epoch":"2026-05-25T00:20:28.032576Z","epoch_age_seconds":77754,"freshness":"FRESH","line1":"1 62565U 25006M   26145.01421334  .00201086  00000+0  15312-2 0  9993","line2":"2 62565  43.0015  40.0698 0002931 271.1870  88.8662 15.70865305 78606","mean_motion":15.70865305,"eccentricity":0.0002931,"inclination_deg":43.0015,"raan_deg":40.0698,"arg_perigee_deg":271.187,"mean_anomaly_deg":88.8662,"bstar":0.0015312,"rev_number":7860,"period_min":91.669221760551,"perigee_km":354.44883665492,"apogee_km":358.39663557223,"semimajor_km":6734.5597361136,"source":"CELESTRAK","updated_at":"2026-05-25T13:38:19.708872Z"}}